Regional Weather Roundup
Issued by NWS

Home | Current Version | Previous Version | Graphics & Text | Print | Product List | Glossary On
Versions: 1 2 3 4 5 6 7 8 9 10 11 12 13 14 15 16 17 18 19 20 21 22 23 24 25 26 27 28 29 30 31 32 33 34 35 36 37 38 39 40 41 42 43 44 45 46 47 48 49 50
000
ASUS43 KIND 222009
RWRIN

WEATHER ROUNDUP FOR INDIANA
NATIONAL WEATHER SERVICE INDIANAPOLIS IN
400 PM EDT SAT JUL 22 2017

NOTE: "FAIR" INDICATES FEW OR NO CLOUDS BELOW 12,000 FEET WITH NO
SIGNIFICANT WEATHER AND/OR OBSTRUCTIONS TO VISIBILITY.

* - STATION DOES NOT REPORT WEATHER SUCH AS PRECIPITATION OR FOG.

+ - STATION NOT QUALITY CONTROLLED BY THE NATIONAL WEATHER SERVICE.
    USE DATA WITH CAUTION...ESPECIALLY DEWPOINT AND RELATIVE
    HUMIDITY OBSERVATIONS.

INZ001>003-010>013-019-020-222100-
NORTHWEST INDIANA

CITY           SKY/WX    TMP DP  RH WIND       PRES   REMARKS
GARY /AIRPORT/ PTSUNNY   82  70  65 NE7       29.83F
KNOX *+        MOSUNNY   81  72  74 NW6       29.82S
LA PORTE +     MOSUNNY   80  69  69 NW7       29.84S
MICHIGAN CITY+ SUNNY     79  68  69 NW5       29.83F
MONTICELLO +   CLOUDY    82  72  72 W9        29.83R
RENSSELAER +   CLOUDY    81  68  65 W9        29.83F
VALPARAISO     MOSUNNY   85  72  65 NE6       29.83S

$$

LMZ046-743>745-222100-
SOUTHERN LAKE MICHIGAN

STATION/POSITION TIME  TEMP    WIND        PRES    WAVE
                       AIR SEA DIR/SP/G            HT
                 (UTC) (F)     (DEG/KT/KT) (MB)    (FT)
BURNS HARBOR     1940   75      50/  7/  8 1010.8S
MICHIGAN CITY    1940   77     360/  1/  2   N/A
5NW MICH CITY    2000   74 76   CALM  /  2   N/A     1

$$

INZ004-005-014>016-021>024-222100-
NORTH CENTRAL INDIANA

CITY           SKY/WX    TMP DP  RH WIND       PRES   REMARKS
ELKHART        MOSUNNY   82  68  61 NW9         N/A
GOSHEN         MOSUNNY   85  69  58 W14       29.80F
LOGANSPORT +   PTSUNNY   81  70  69 W9        29.84S
PERU/GRISSOM   CLOUDY    82  72  71 W10       29.83R
ROCHESTER +    PTSUNNY   86  70  58 NW7       29.83R
SOUTH BEND     SUNNY     82  69  64 NW13      29.83S
WARSAW +       CLOUDY    82  70  65 NW10      29.82S

$$

INZ006>009-017-018-025>027-222100-
NORTHEAST INDIANA

CITY           SKY/WX    TMP DP  RH WIND       PRES   REMARKS
AUBURN +       CLOUDY    82  68  61 NW9       29.81S
FORT WAYNE     PTSUNNY   83  70  64 W12       29.81F
HUNTINGTON +   PTSUNNY   80  70  72 W6        29.81S
KENDALLVILLE + MOSUNNY   83  71  66 NW7       29.81S

$$

INZ028-029-035-036-043>045-051>053-222100-
WEST CENTRAL INDIANA

CITY           SKY/WX    TMP DP  RH WIND       PRES   REMARKS
GREENCASTLE +  PTSUNNY   86  72  62 W6        29.84S
LAFAYETTE      PTSUNNY   83  73  72 W10       29.82S
TERRE HAUTE    PTSUNNY   91  72  53 NW6       29.82S HX  98

$$

INZ030>032-037>040-046>048-054>057-064-065-222100-
CENTRAL INDIANA

CITY           SKY/WX    TMP DP  RH WIND       PRES   REMARKS
CP ATTERBURY + PTSUNNY   91  72  52 W5        29.83S HX  98
COLUMBUS       SUNNY     93  70  46 W10       29.82R HX  99
FRANKFORT +    PTSUNNY   86  75  70 N7        29.86S HX  95
GREENWOOD *+   CLOUDY   N/A N/A N/A W7        29.84F
INDIANAPOLIS   CLOUDY    90  73  57 NW12      29.83S HX  98
-EAGLE CREEK   PTSUNNY   87  71  58 NW12      29.83S
KOKOMO +       CLOUDY    82  72  71 W10       29.85R
MARION +       PTSUNNY   81  70  69 W10       29.85R
MT COMFORT *+  CLOUDY    86  73  66 NW8       29.85R
SHELBYVILLE    CLOUDY    89  74  60 W8        29.83S HX  98
ZIONSVILLE +   CLOUDY    83  73  70 NW9       29.85F

$$

INZ033-034-041-042-049-050-058-059-222100-
EAST CENTRAL INDIANA

CITY           SKY/WX    TMP DP  RH WIND       PRES   REMARKS
MUNCIE         CLOUDY    85  73  67 NW7       29.85R
RICHMOND +     PTSUNNY   84  73  70 W17       29.85R

$$

INZ060-061-067>069-081>083-085>088-222100-
SOUTHWEST INDIANA

CITY           SKY/WX    TMP DP  RH WIND       PRES   REMARKS
EVANSVILLE     MOSUNNY   98  70  40 S17G25    29.83F HX 105
HUNTINGBURG *+ SUNNY     94  77  57 S14G24    29.81F HX 108

$$

INZ062-063-066-070>080-084-089>092-222100-
SOUTH CENTRAL AND SOUTHEAST INDIANA

CITY           SKY/WX    TMP DP  RH WIND       PRES   REMARKS
BEDFORD +      PTSUNNY   93  72  49 SW9G16    29.82R HX 100
BLOOMINGTON    MOSUNNY   92  71  50 W9G18     29.83R HX  98
MADISON *+     CLOUDY    90  72  55 SW8       29.85R HX  96
NORTH VERNON + PTSUNNY   88  75  66 W7        29.85R HX  97
SEYMOUR +      CLOUDY    91  73  55 W6        29.82R HX 100

$$





USA.gov is the U.S. government's official web portal to all federal, state and local government web resources and services.